| time (UTC) | temp F | wind direction | speed MPH | gust MPH | rain 1hr in | rain 24hr in | rain mn in | humidity % | barometer mb |
| 20260506062254 | 62 | 162 | 2.0 | 2.0 | 0.00 | 0.00 | 0.00 | 85 | 1015.5 |
| 20260506061750 | 62 | 162 | 2.0 | 2.0 | 0.00 | 0.00 | 0.00 | 85 | 1015.7 |
| 20260506061247 | 63 | 169 | 3.0 | 3.0 | 0.00 | 0.00 | 0.00 | 85 | 1015.7 |
| 20260506060745 | 63 | 199 | 4.0 | 5.0 | 0.00 | 0.00 | 0.00 | 85 | 1015.8 |
| 20260506060243 | 63 | 166 | 2.0 | 2.0 | 0.00 | 0.00 | 0.00 | 85 | 1016.1 |
| 20260506051209 | 64 | 185 | 4.0 | 6.0 | 0.00 | 0.00 | 0.00 | 83 | 1016.5 |
| 20260506050707 | 64 | 170 | 3.0 | 3.0 | 0.00 | 0.00 | 0.00 | 83 | 1016.5 |
| 20260506050204 | 64 | 181 | 4.0 | 6.0 | 0.00 | 0.00 | 0.00 | 84 | 1016.4 |
| 20260506044655 | 64 | 158 | 3.0 | 5.0 | 0.00 | 0.00 | 0.00 | 84 | 1016.4 |
| 20260506044151 | 63 | 186 | 4.0 | 5.0 | 0.00 | 0.00 | 0.00 | 84 | 1016.4 |
| 20260506043649 | 64 | 161 | 2.0 | 3.0 | 0.00 | 0.00 | 0.00 | 84 | 1016.6 |
| 20260506043147 | 64 | 159 | 4.0 | 5.0 | 0.00 | 0.00 | 0.00 | 84 | 1016.7 |
| 20260506042646 | 64 | 174 | 3.0 | 3.0 | 0.00 | 0.00 | 0.00 | 83 | 1016.7 |
| 20260506042143 | 64 | 167 | 3.0 | 3.0 | 0.00 | 0.00 | 0.00 | 83 | 1016.8 |
| 20260506041642 | 64 | 175 | 4.0 | 6.0 | 0.00 | 0.00 | 0.00 | 83 | 1016.8 |
| 20260506041138 | 64 | 195 | 3.0 | 3.0 | 0.00 | 0.00 | 0.00 | 82 | 1016.7 |
| 20260506040635 | 64 | 183 | 5.0 | 6.0 | 0.00 | 0.00 | 0.00 | 83 | 1016.7 |
| 20260506040132 | 64 | 199 | 6.0 | 8.0 | 0.00 | 0.00 | 0.00 | 82 | 1016.7 |
| 20260506035629 | 64 | 164 | 4.0 | 6.0 | 0.00 | 0.00 | 0.00 | 82 | 1016.6 |
| 20260506035126 | 64 | 161 | 3.0 | 3.0 | 0.00 | 0.00 | 0.00 | 82 | 1016.7 |
| 20260506034623 | 64 | 174 | 4.0 | 5.0 | 0.00 | 0.00 | 0.00 | 82 | 1016.7 |
| 20260506034120 | 64 | 182 | 4.0 | 5.0 | 0.00 | 0.00 | 0.00 | 81 | 1016.8 |
| 20260506033617 | 64 | 182 | 5.0 | 7.0 | 0.00 | 0.00 | 0.00 | 81 | 1016.6 |
| 20260506033114 | 64 | 193 | 5.0 | 7.0 | 0.00 | 0.00 | 0.00 | 81 | 1016.7 |
| 20260506032612 | 64 | 218 | 5.0 | 6.0 | 0.00 | 0.00 | 0.00 | 81 | 1016.7 |
| 20260506032108 | 64 | 160 | 5.0 | 6.0 | 0.00 | 0.00 | 0.00 | 80 | 1016.8 |
| 20260506031605 | 64 | 165 | 4.0 | 5.0 | 0.00 | 0.00 | 0.00 | 80 | 1016.7 |
| 20260506031102 | 64 | 157 | 3.0 | 3.0 | 0.00 | 0.00 | 0.00 | 80 | 1016.9 |
| 20260506030601 | 64 | 161 | 4.0 | 5.0 | 0.00 | 0.00 | 0.00 | 80 | 1016.7 |
| 20260506030057 | 64 | 157 | 4.0 | 5.0 | 0.00 | 0.00 | 0.00 | 79 | 1016.9 |
| 20260506025554 | 64 | 162 | 5.0 | 5.0 | 0.00 | 0.00 | 0.00 | 79 | 1016.9 |
| 20260506025050 | 64 | 160 | 3.0 | 3.0 | 0.00 | 0.00 | 0.00 | 79 | 1017.0 |
| 20260506024548 | 64 | 184 | 5.0 | 6.0 | 0.00 | 0.00 | 0.00 | 79 | 1016.9 |
| 20260506024044 | 64 | 189 | 4.0 | 6.0 | 0.00 | 0.00 | 0.00 | 79 | 1017.2 |
| 20260506023540 | 65 | 176 | 3.0 | 3.0 | 0.00 | 0.00 | 0.00 | 78 | 1017.3 |
| 20260506023038 | 65 | 167 | 3.0 | 3.0 | 0.00 | 0.00 | 0.00 | 78 | 1017.2 |
| 20260506022535 | 65 | 162 | 5.0 | 5.0 | 0.00 | 0.00 | 0.00 | 78 | 1017.3 |
| 20260506022033 | 66 | 183 | 5.0 | 6.0 | 0.00 | 0.00 | 0.00 | 77 | 1017.0 |
| 20260506021530 | 66 | 161 | 4.0 | 5.0 | 0.00 | 0.00 | 0.00 | 76 | 1017.0 |
| 20260506021027 | 66 | 203 | 4.0 | 6.0 | 0.00 | 0.00 | 0.00 | 76 | 1017.2 |
| 20260506020525 | 66 | 170 | 5.0 | 7.0 | 0.00 | 0.00 | 0.00 | 75 | 1017.0 |
| 20260506020022 | 67 | 163 | 4.0 | 5.0 | 0.00 | 0.00 | 0.00 | 75 | 1017.1 |
| 20260506015519 | 67 | 174 | 4.0 | 5.0 | 0.00 | 0.00 | 0.00 | 74 | 1016.8 |
| 20260506015016 | 67 | 190 | 4.0 | 5.0 | 0.00 | 0.00 | 0.00 | 75 | 1016.9 |
| 20260506014514 | 67 | 193 | 7.0 | 8.0 | 0.00 | 0.00 | 0.00 | 74 | 1016.6 |
| 20260506014009 | 67 | 184 | 5.0 | 6.0 | 0.00 | 0.00 | 0.00 | 73 | 1016.7 |
| 20260506013507 | 67 | 180 | 5.0 | 5.0 | 0.00 | 0.00 | 0.00 | 73 | 1016.7 |
| 20260506013004 | 67 | 158 | 5.0 | 7.0 | 0.00 | 0.00 | 0.00 | 73 | 1016.7 |
| 20260506012500 | 67 | 201 | 7.0 | 9.0 | 0.00 | 0.00 | 0.00 | 73 | 1016.6 |
| 20260506011957 | 67 | 168 | 5.0 | 7.0 | 0.00 | 0.00 | 0.00 | 72 | 1016.8 |
| 20260506011454 | 68 | 189 | 5.0 | 6.0 | 0.00 | 0.00 | 0.00 | 72 | 1016.4 |
| 20260506010951 | 68 | 166 | 4.0 | 6.0 | 0.00 | 0.00 | 0.00 | 71 | 1016.6 |
| 20260506010450 | 68 | 189 | 7.0 | 8.0 | 0.00 | 0.00 | 0.00 | 71 | 1016.7 |
| 20260506005945 | 68 | 162 | 7.0 | 9.0 | 0.00 | 0.00 | 0.00 | 71 | 1016.5 |
| 20260506005444 | 68 | 168 | 6.0 | 7.0 | 0.00 | 0.00 | 0.00 | 70 | 1016.6 |
| 20260506004938 | 68 | 167 | 5.0 | 8.0 | 0.00 | 0.00 | 0.00 | 70 | 1016.5 |
| 20260506004437 | 68 | 177 | 6.0 | 8.0 | 0.00 | 0.00 | 0.00 | 70 | 1016.4 |
| 20260506003932 | 68 | 177 | 8.0 | 10.0 | 0.00 | 0.00 | 0.00 | 70 | 1016.5 |
| 20260506003429 | 69 | 195 | 4.0 | 7.0 | 0.00 | 0.00 | 0.00 | 69 | 1016.4 |
| 20260506002926 | 69 | 176 | 6.0 | 8.0 | 0.00 | 0.00 | 0.00 | 69 | 1016.6 |
| 20260506002422 | 69 | 208 | 6.0 | 7.0 | 0.00 | 0.00 | 0.00 | 68 | 1016.4 |
| 20260506001917 | 69 | 174 | 5.0 | 8.0 | 0.00 | 0.00 | 0.00 | 68 | 1016.3 |
| 20260506001415 | 69 | 172 | 3.0 | 5.0 | 0.00 | 0.00 | 0.00 | 68 | 1016.4 |
| 20260506000912 | 69 | 189 | 4.0 | 6.0 | 0.00 | 0.00 | 0.00 | 68 | 1016.3 |
| 20260506000409 | 70 | 186 | 4.0 | 5.0 | 0.00 | 0.00 | 0.00 | 67 | 1016.3 |
| 20260505235906 | 70 | 213 | 4.0 | 5.0 | 0.00 | 0.00 | 0.00 | 67 | 1016.5 |
| 20260505235404 | 70 | 221 | 5.0 | 7.0 | 0.00 | 0.00 | 0.00 | 66 | 1016.1 |
| 20260505234900 | 71 | 170 | 5.0 | 8.0 | 0.00 | 0.00 | 0.00 | 66 | 1015.8 |
| 20260505234358 | 71 | 177 | 6.0 | 7.0 | 0.00 | 0.00 | 0.00 | 65 | 1016.1 |
| 20260505233855 | 71 | 187 | 10.0 | 13.0 | 0.00 | 0.00 | 0.00 | 65 | 1015.7 |
| 20260505233353 | 71 | 206 | 7.0 | 8.0 | 0.00 | 0.00 | 0.00 | 64 | 1015.8 |
| 20260505232850 | 71 | 151 | 7.0 | 9.0 | 0.00 | 0.00 | 0.00 | 63 | 1015.8 |
| 20260505232348 | 72 | 189 | 10.0 | 11.0 | 0.00 | 0.00 | 0.00 | 63 | 1016.3 |
| 20260505231844 | 72 | 204 | 9.0 | 10.0 | 0.00 | 0.00 | 0.00 | 62 | 1016.1 |
| 20260505231341 | 72 | 197 | 11.0 | 16.0 | 0.00 | 0.00 | 0.00 | 62 | 1016.0 |
| 20260505230840 | 73 | 172 | 12.0 | 13.0 | 0.00 | 0.00 | 0.00 | 62 | 1015.6 |
| 20260505230337 | 73 | 203 | 7.0 | 8.0 | 0.00 | 0.00 | 0.00 | 62 | 1015.7 |
| 20260505225833 | 73 | 239 | 7.0 | 9.0 | 0.00 | 0.00 | 0.00 | 62 | 1015.6 |
| 20260505225330 | 73 | 207 | 12.0 | 14.0 | 0.00 | 0.00 | 0.00 | 61 | 1015.6 |
| 20260505224825 | 74 | 228 | 13.0 | 16.0 | 0.00 | 0.00 | 0.00 | 60 | 1016.0 |
| 20260505224324 | 74 | 173 | 9.0 | 9.0 | 0.00 | 0.00 | 0.00 | 60 | 1015.6 |
| 20260505223820 | 74 | 178 | 11.0 | 15.0 | 0.00 | 0.00 | 0.00 | 59 | 1015.7 |
| 20260505223317 | 75 | 191 | 7.0 | 8.0 | 0.00 | 0.00 | 0.00 | 60 | 1015.8 |
| 20260505222813 | 75 | 184 | 12.0 | 15.0 | 0.00 | 0.00 | 0.00 | 59 | 1016.0 |
| 20260505222309 | 75 | 200 | 13.0 | 17.0 | 0.00 | 0.00 | 0.00 | 59 | 1015.9 |
| 20260505221807 | 75 | 182 | 9.0 | 10.0 | 0.00 | 0.00 | 0.00 | 58 | 1015.8 |
| 20260505221303 | 75 | 213 | 13.0 | 17.0 | 0.00 | 0.00 | 0.00 | 58 | 1015.8 |
| 20260505220800 | 75 | 205 | 8.0 | 9.0 | 0.00 | 0.00 | 0.00 | 57 | 1016.0 |
| 20260505220257 | 75 | 221 | 10.0 | 14.0 | 0.00 | 0.00 | 0.00 | 58 | 1015.8 |
| 20260505215755 | 76 | 222 | 6.0 | 8.0 | 0.00 | 0.00 | 0.00 | 57 | 1016.0 |
| 20260505215253 | 76 | 203 | 11.0 | 14.0 | 0.00 | 0.00 | 0.00 | 56 | 1015.8 |
| 20260505214750 | 76 | 214 | 12.0 | 15.0 | 0.00 | 0.00 | 0.00 | 56 | 1015.8 |
| 20260505214248 | 76 | 176 | 11.0 | 14.0 | 0.00 | 0.00 | 0.00 | 56 | 1015.6 |
| 20260505213745 | 77 | 179 | 10.0 | 11.0 | 0.00 | 0.00 | 0.00 | 55 | 1015.7 |
| 20260505213242 | 76 | 197 | 9.0 | 11.0 | 0.00 | 0.00 | 0.00 | 56 | 1015.7 |
| 20260505212738 | 76 | 212 | 10.0 | 13.0 | 0.00 | 0.00 | 0.00 | 56 | 1015.6 |
| 20260505212236 | 76 | 195 | 12.0 | 18.0 | 0.00 | 0.00 | 0.00 | 56 | 1015.5 |
| 20260505211732 | 77 | 222 | 6.0 | 8.0 | 0.00 | 0.00 | 0.00 | 55 | 1015.5 |
| 20260505211230 | 77 | 185 | 8.0 | 10.0 | 0.00 | 0.00 | 0.00 | 54 | 1015.6 |
| 20260505210726 | 77 | 220 | 11.0 | 15.0 | 0.00 | 0.00 | 0.00 | 54 | 1015.7 |
| 20260505210223 | 77 | 202 | 9.0 | 13.0 | 0.00 | 0.00 | 0.00 | 53 | 1015.5 |
| 20260505205720 | 78 | 198 | 7.0 | 8.0 | 0.00 | 0.00 | 0.00 | 54 | 1015.6 |
| 20260505205218 | 78 | 235 | 8.0 | 9.0 | 0.00 | 0.00 | 0.00 | 53 | 1015.6 |
| 20260505204715 | 79 | 176 | 12.0 | 14.0 | 0.00 | 0.00 | 0.00 | 52 | 1015.4 |
| 20260505204213 | 78 | 206 | 12.0 | 14.0 | 0.00 | 0.00 | 0.00 | 52 | 1015.7 |
| 20260505203710 | 78 | 201 | 10.0 | 11.0 | 0.00 | 0.00 | 0.00 | 52 | 1015.7 |
| 20260505203206 | 78 | 173 | 13.0 | 15.0 | 0.00 | 0.00 | 0.00 | 53 | 1015.5 |
| 20260505202702 | 78 | 170 | 12.0 | 17.0 | 0.00 | 0.00 | 0.00 | 52 | 1015.5 |
| 20260505202158 | 79 | 205 | 11.0 | 14.0 | 0.00 | 0.00 | 0.00 | 52 | 1015.5 |
| 20260505201655 | 80 | 214 | 12.0 | 14.0 | 0.00 | 0.00 | 0.00 | 51 | 1015.5 |
| 20260505201153 | 80 | 178 | 16.0 | 18.0 | 0.00 | 0.00 | 0.00 | 50 | 1015.6 |
| 20260505200651 | 80 | 165 | 11.0 | 15.0 | 0.00 | 0.00 | 0.00 | 52 | 1015.6 |
| 20260505200147 | 80 | 200 | 11.0 | 13.0 | 0.00 | 0.00 | 0.00 | 50 | 1015.6 |
| 20260505195643 | 80 | 161 | 12.0 | 15.0 | 0.00 | 0.00 | 0.00 | 50 | 1015.9 |
| 20260505195141 | 80 | 191 | 10.0 | 13.0 | 0.00 | 0.00 | 0.00 | 49 | 1015.8 |
| 20260505194638 | 80 | 246 | 7.0 | 9.0 | 0.00 | 0.00 | 0.00 | 48 | 1016.1 |
| 20260505194134 | 80 | 214 | 10.0 | 13.0 | 0.00 | 0.00 | 0.00 | 48 | 1016.0 |
| 20260505193631 | 81 | 209 | 9.0 | 13.0 | 0.00 | 0.00 | 0.00 | 49 | 1015.9 |
| 20260505193128 | 80 | 182 | 10.0 | 13.0 | 0.00 | 0.00 | 0.00 | 48 | 1016.3 |
| 20260505192626 | 80 | 209 | 10.0 | 14.0 | 0.00 | 0.00 | 0.00 | 49 | 1016.0 |
| 20260505192123 | 80 | 217 | 10.0 | 13.0 | 0.00 | 0.00 | 0.00 | 44 | 1016.4 |
| 20260505191622 | 81 | 174 | 12.0 | 16.0 | 0.00 | 0.00 | 0.00 | 45 | 1016.3 |
| 20260505191119 | 80 | 250 | 8.0 | 9.0 | 0.00 | 0.00 | 0.00 | 45 | 1016.3 |
| 20260505190615 | 80 | 167 | 13.0 | 14.0 | 0.00 | 0.00 | 0.00 | 45 | 1016.7 |
| 20260505190110 | 80 | 222 | 6.0 | 8.0 | 0.00 | 0.00 | 0.00 | 45 | 1016.5 |
| 20260505185607 | 80 | 190 | 11.0 | 13.0 | 0.00 | 0.00 | 0.00 | 48 | 1016.5 |
| 20260505185103 | 80 | 174 | 10.0 | 11.0 | 0.00 | 0.00 | 0.00 | 48 | 1016.5 |
| 20260505184559 | 80 | 154 | 8.0 | 11.0 | 0.00 | 0.00 | 0.00 | 48 | 1016.5 |
| 20260505184056 | 80 | 180 | 12.0 | 14.0 | 0.00 | 0.00 | 0.00 | 49 | 1016.8 |
| 20260505183553 | 79 | 172 | 10.0 | 14.0 | 0.00 | 0.00 | 0.00 | 45 | 1016.7 |
| 20260505183051 | 80 | 162 | 11.0 | 13.0 | 0.00 | 0.00 | 0.00 | 44 | 1016.7 |
| 20260505182546 | 80 | 199 | 7.0 | 9.0 | 0.00 | 0.00 | 0.00 | 45 | 1016.7 |
| 20260505182043 | 79 | 192 | 5.0 | 8.0 | 0.00 | 0.00 | 0.00 | 46 | 1016.8 |
| 20260505181540 | 79 | 208 | 9.0 | 15.0 | 0.00 | 0.00 | 0.00 | 46 | 1017.0 |
| 20260505181038 | 79 | 155 | 10.0 | 14.0 | 0.00 | 0.00 | 0.00 | 46 | 1016.6 |
| 20260505180533 | 80 | 155 | 11.0 | 13.0 | 0.00 | 0.00 | 0.00 | 48 | 1016.8 |
| 20260505180032 | 79 | 177 | 10.0 | 17.0 | 0.00 | 0.00 | 0.00 | 47 | 1016.7 |
| 20260505175532 | 78 | 202 | 7.0 | 8.0 | 0.00 | 0.00 | 0.00 | 48 | 1016.8 |
| 20260505175029 | 79 | 159 | 11.0 | 13.0 | 0.00 | 0.00 | 0.00 | 48 | 1016.9 |
| 20260505174526 | 80 | 190 | 9.0 | 10.0 | 0.00 | 0.00 | 0.00 | 47 | 1016.9 |
| 20260505174022 | 79 | 231 | 11.0 | 13.0 | 0.00 | 0.00 | 0.00 | 47 | 1016.7 |
| 20260505173519 | 81 | 239 | 7.0 | 8.0 | 0.00 | 0.00 | 0.00 | 44 | 1016.9 |
| 20260505173016 | 79 | 271 | 8.0 | 11.0 | 0.00 | 0.00 | 0.00 | 46 | 1016.9 |
| 20260505172514 | 79 | 230 | 10.0 | 11.0 | 0.00 | 0.00 | 0.00 | 48 | 1016.9 |
| 20260505172009 | 79 | 232 | 9.0 | 11.0 | 0.00 | 0.00 | 0.00 | 46 | 1017.1 |
| 20260505171505 | 79 | 214 | 5.0 | 6.0 | 0.00 | 0.00 | 0.00 | 48 | 1017.1 |
| 20260505171002 | 78 | 228 | 11.0 | 16.0 | 0.00 | 0.00 | 0.00 | 48 | 1017.1 |
| 20260505170459 | 78 | 187 | 11.0 | 11.0 | 0.00 | 0.00 | 0.00 | 49 | 1017.1 |
| 20260505165954 | 78 | 190 | 7.0 | 9.0 | 0.00 | 0.00 | 0.00 | 50 | 1017.3 |
| 20260505165450 | 78 | 189 | 7.0 | 10.0 | 0.00 | 0.00 | 0.00 | 50 | 1017.3 |
| 20260505164946 | 78 | 210 | 10.0 | 11.0 | 0.00 | 0.00 | 0.00 | 49 | 1017.3 |
| 20260505164442 | 77 | 201 | 5.0 | 7.0 | 0.00 | 0.00 | 0.00 | 50 | 1017.6 |
| 20260505163940 | 78 | 213 | 8.0 | 10.0 | 0.00 | 0.00 | 0.00 | 48 | 1017.5 |
| 20260505163439 | 78 | 206 | 9.0 | 10.0 | 0.00 | 0.00 | 0.00 | 49 | 1017.3 |
| 20260505162938 | 78 | 215 | 5.0 | 6.0 | 0.00 | 0.00 | 0.00 | 48 | 1017.5 |
| 20260505162433 | 77 | 199 | 11.0 | 14.0 | 0.00 | 0.00 | 0.00 | 51 | 1017.3 |
| 20260505161930 | 77 | 226 | 9.0 | 10.0 | 0.00 | 0.00 | 0.00 | 49 | 1017.3 |
| 20260505161427 | 78 | 209 | 9.0 | 11.0 | 0.00 | 0.00 | 0.00 | 48 | 1017.6 |
| 20260505160924 | 77 | 246 | 5.0 | 7.0 | 0.00 | 0.00 | 0.00 | 50 | 1017.7 |
| 20260505160423 | 77 | 222 | 7.0 | 10.0 | 0.00 | 0.00 | 0.00 | 50 | 1017.7 |
| 20260505152858 | 76 | 194 | 11.0 | 11.0 | 0.00 | 0.00 | 0.00 | 51 | 1018.0 |
| 20260505152355 | 76 | 173 | 7.0 | 9.0 | 0.00 | 0.00 | 0.00 | 53 | 1017.7 |
| 20260505151849 | 75 | 248 | 6.0 | 6.0 | 0.00 | 0.00 | 0.00 | 53 | 1017.8 |
| 20260505151346 | 75 | 213 | 8.0 | 10.0 | 0.00 | 0.00 | 0.00 | 53 | 1017.7 |
| 20260505150843 | 76 | 230 | 9.0 | 10.0 | 0.00 | 0.00 | 0.00 | 52 | 1017.8 |
| 20260505150340 | 75 | 213 | 5.0 | 6.0 | 0.00 | 0.00 | 0.00 | 54 | 1017.9 |
| 20260505140305 | 72 | 197 | 10.0 | 13.0 | 0.00 | 0.00 | 0.00 | 58 | 1017.9 |
| 20260505130228 | 69 | 186 | 13.0 | 15.0 | 0.00 | 0.00 | 0.00 | 65 | 1017.8 |
| 20260505124719 | 68 | 197 | 7.0 | 9.0 | 0.00 | 0.00 | 0.00 | 69 | 1018.0 |
| 20260505124216 | 67 | 228 | 6.0 | 7.0 | 0.00 | 0.00 | 0.00 | 71 | 1018.1 |
| 20260505123711 | 67 | 217 | 6.0 | 8.0 | 0.00 | 0.00 | 0.00 | 72 | 1018.1 |
| 20260505123209 | 66 | 206 | 6.0 | 8.0 | 0.00 | 0.00 | 0.00 | 73 | 1018.0 |
| 20260505122705 | 66 | 221 | 4.0 | 5.0 | 0.00 | 0.00 | 0.00 | 74 | 1018.1 |
| 20260505122202 | 65 | 254 | 6.0 | 7.0 | 0.00 | 0.00 | 0.00 | 74 | 1017.8 |
| 20260505121658 | 65 | 218 | 4.0 | 5.0 | 0.00 | 0.00 | 0.00 | 75 | 1017.9 |
| 20260505121155 | 64 | 204 | 5.0 | 6.0 | 0.00 | 0.00 | 0.00 | 76 | 1017.8 |
| 20260505120651 | 64 | 232 | 5.0 | 6.0 | 0.00 | 0.00 | 0.00 | 77 | 1017.7 |
| 20260505120147 | 64 | 232 | 5.0 | 7.0 | 0.00 | 0.00 | 0.00 | 78 | 1017.8 |
| 20260505115641 | 63 | 220 | 6.0 | 7.0 | 0.00 | 0.00 | 0.00 | 79 | 1017.7 |
| 20260505115139 | 63 | 226 | 5.0 | 6.0 | 0.00 | 0.00 | 0.00 | 79 | 1017.6 |
| 20260505114636 | 62 | 201 | 3.0 | 3.0 | 0.00 | 0.00 | 0.00 | 80 | 1017.8 |
| 20260505114132 | 62 | 201 | 5.0 | 6.0 | 0.00 | 0.00 | 0.00 | 81 | 1017.8 |
| 20260505113629 | 61 | 224 | 4.0 | 5.0 | 0.00 | 0.00 | 0.00 | 81 | 1017.8 |
| 20260505113126 | 60 | 172 | 3.0 | 3.0 | 0.00 | 0.00 | 0.00 | 82 | 1017.6 |
| 20260505112622 | 60 | 190 | 3.0 | 3.0 | 0.00 | 0.00 | 0.00 | 82 | 1017.5 |
| 20260505112120 | 60 | 177 | 3.0 | 5.0 | 0.00 | 0.00 | 0.00 | 82 | 1017.4 |
| 20260505111614 | 59 | 223 | 5.0 | 7.0 | 0.00 | 0.00 | 0.00 | 82 | 1017.5 |
| 20260505111110 | 59 | 192 | 4.0 | 5.0 | 0.00 | 0.00 | 0.00 | 83 | 1017.5 |
| 20260505110606 | 59 | 195 | 3.0 | 3.0 | 0.00 | 0.00 | 0.00 | 83 | 1017.5 |
| 20260505110104 | 59 | 207 | 3.0 | 3.0 | 0.00 | 0.00 | 0.00 | 83 | 1017.4 |
| 20260505102039 | 58 | 215 | 3.0 | 3.0 | 0.00 | 0.00 | 0.00 | 84 | 1016.8 |
| 20260505101537 | 58 | 198 | 4.0 | 5.0 | 0.00 | 0.00 | 0.00 | 84 | 1017.0 |
| 20260505101033 | 58 | 181 | 2.0 | 2.0 | 0.00 | 0.00 | 0.00 | 84 | 1017.1 |
| 20260505100531 | 58 | 163 | 4.0 | 5.0 | 0.00 | 0.00 | 0.00 | 84 | 1016.9 |
| 20260505100027 | 58 | 173 | 5.0 | 7.0 | 0.00 | 0.00 | 0.00 | 85 | 1016.8 |
| 20260505095524 | 58 | 188 | 3.0 | 3.0 | 0.00 | 0.00 | 0.00 | 84 | 1016.7 |
| 20260505095020 | 58 | 183 | 3.0 | 3.0 | 0.00 | 0.00 | 0.00 | 84 | 1016.7 |
| 20260505094517 | 58 | 203 | 3.0 | 5.0 | 0.00 | 0.00 | 0.00 | 84 | 1016.7 |
| 20260505094013 | 58 | 191 | 4.0 | 5.0 | 0.00 | 0.00 | 0.00 | 84 | 1016.7 |
| 20260505093509 | 58 | 185 | 4.0 | 5.0 | 0.00 | 0.00 | 0.00 | 84 | 1016.8 |
| 20260505093007 | 58 | 190 | 3.0 | 3.0 | 0.00 | 0.00 | 0.00 | 84 | 1016.5 |
| 20260505092504 | 58 | 169 | 3.0 | 5.0 | 0.00 | 0.00 | 0.00 | 84 | 1016.7 |
| 20260505092002 | 58 | 165 | 3.0 | 5.0 | 0.00 | 0.00 | 0.00 | 83 | 1016.6 |
| 20260505091459 | 59 | 166 | 3.0 | 5.0 | 0.00 | 0.00 | 0.00 | 83 | 1016.3 |
| 20260505090957 | 59 | 167 | 4.0 | 6.0 | 0.00 | 0.00 | 0.00 | 83 | 1016.6 |
| 20260505090455 | 58 | 162 | 4.0 | 5.0 | 0.00 | 0.00 | 0.00 | 83 | 1016.3 |
| 20260505085952 | 58 | 173 | 3.0 | 3.0 | 0.00 | 0.00 | 0.00 | 83 | 1016.4 |
| 20260505085450 | 58 | 190 | 3.0 | 5.0 | 0.00 | 0.00 | 0.00 | 83 | 1016.3 |
| 20260505084948 | 58 | 187 | 3.0 | 3.0 | 0.00 | 0.00 | 0.00 | 83 | 1016.5 |
| 20260505084446 | 58 | 191 | 3.0 | 3.0 | 0.00 | 0.00 | 0.00 | 83 | 1016.3 |
| 20260505083943 | 58 | 170 | 4.0 | 5.0 | 0.00 | 0.00 | 0.00 | 83 | 1016.3 |
| 20260505083440 | 58 | 173 | 5.0 | 6.0 | 0.00 | 0.00 | 0.00 | 83 | 1016.2 |
| 20260505082937 | 58 | 189 | 3.0 | 3.0 | 0.00 | 0.00 | 0.00 | 83 | 1016.2 |
| 20260505082432 | 59 | 203 | 3.0 | 3.0 | 0.00 | 0.00 | 0.00 | 83 | 1016.4 |
| 20260505081930 | 58 | 188 | 3.0 | 3.0 | 0.00 | 0.00 | 0.00 | 83 | 1016.3 |
| 20260505081427 | 59 | 172 | 3.0 | 3.0 | 0.00 | 0.00 | 0.00 | 82 | 1016.2 |
| 20260505080923 | 59 | 197 | 4.0 | 6.0 | 0.00 | 0.00 | 0.00 | 82 | 1016.3 |
| 20260505080419 | 59 | 187 | 3.0 | 3.0 | 0.00 | 0.00 | 0.00 | 82 | 1016.2 |
| 20260505075915 | 59 | 190 | 4.0 | 5.0 | 0.00 | 0.00 | 0.00 | 82 | 1016.4 |
| 20260505075412 | 59 | 192 | 5.0 | 5.0 | 0.00 | 0.00 | 0.00 | 82 | 1016.4 |
| 20260505074909 | 59 | 203 | 3.0 | 5.0 | 0.00 | 0.00 | 0.00 | 82 | 1015.9 |
| 20260505074406 | 59 | 179 | 3.0 | 3.0 | 0.00 | 0.00 | 0.00 | 82 | 1016.1 |
| 20260505073903 | 59 | 205 | 5.0 | 6.0 | 0.00 | 0.00 | 0.00 | 82 | 1016.2 |
| 20260505073401 | 59 | 187 | 5.0 | 6.0 | 0.00 | 0.00 | 0.00 | 81 | 1016.1 |
| 20260505072858 | 59 | 189 | 3.0 | 3.0 | 0.00 | 0.00 | 0.00 | 81 | 1016.2 |
| 20260505072354 | 59 | 209 | 4.0 | 5.0 | 0.00 | 0.00 | 0.00 | 81 | 1015.7 |
| 20260505071850 | 59 | 204 | 3.0 | 3.0 | 0.00 | 0.00 | 0.00 | 81 | 1015.9 |
| 20260505071347 | 59 | 197 | 4.0 | 5.0 | 0.00 | 0.00 | 0.00 | 81 | 1015.9 |
| 20260505070845 | 59 | 207 | 3.0 | 3.0 | 0.00 | 0.00 | 0.00 | 81 | 1016.0 |
| 20260505070341 | 59 | 178 | 3.0 | 5.0 | 0.00 | 0.00 | 0.00 | 81 | 1016.0 |
| 20260505065836 | 60 | 209 | 5.0 | 6.0 | 0.00 | 0.00 | 0.00 | 80 | 1015.9 |